Location: Unspecified
(43.3830°N, 0.0000°E)
Time: 20:39:31
(UTC+00:00)

Vanguard 2 - Pass Details

Date: 23 June 2019
Orbit: 553 x 2938 km, 32.9° (Epoch: 16 July)

Event Time Altitude Azimuth Distance (km) Brightness Sun altitude
Rises 12:23:24 0° 265° (W) 4,106 11.3 69.6°
Reaches altitude 10° 12:26:09 10° 255° (WSW) 3,430 11.1 69.4°
Maximum altitude 12:33:58 32° 196° (SSW) 2,814 11.4 69.0°
Drops below altitude 10° 12:45:32 10° 141° (SE) 5,125 12.0 68.1°
Sets 12:50:48 0° 134° (SE) 6,432 12.3 67.7°
